Location: Cisewo
(53.3833°N, 14.9000°E)
Time: 16:34:05
(UTC+00:00)

BEESAT 3 - Visible Passes

Search period start: 25 September 2021 00:00
Search period end: 05 October 2021 00:00
Orbit: 483 x 509 km, 64.9° (Epoch: 25 September)

Date Brightness Start Highest point End Pass type
(mag) Time Alt. Az. Time Alt. Az. Time Alt. Az.
25 Sep ? 17:42:12 10° NW 17:44:42 16° N 17:47:12 10° NNE visible
25 Sep ? 19:20:35 10° NNW 19:23:16 17° NNE 19:24:05 16° NNE visible
25 Sep ? 20:57:39 10° NW 20:58:39 17° NNW 20:58:39 17° NNW visible
26 Sep ? 17:20:10 10° NW 17:22:42 17° N 17:25:15 10° NNE visible
26 Sep ? 18:58:39 10° NNW 19:01:16 17° NNE 19:02:35 15° NE visible
26 Sep ? 20:35:45 10° NW 20:37:09 20° NNW 20:37:09 20° NNW visible
27 Sep ? 18:36:42 10° NNW 18:39:16 17° NNE 18:41:05 13° NE visible
27 Sep ? 20:13:50 10° NW 20:15:39 23° NNW 20:15:39 23° NNW visible
28 Sep ? 18:14:44 10° NNW 18:17:15 16° N 18:19:35 11° NE visible
28 Sep ? 19:51:53 10° NW 19:54:09 27° N 19:54:09 27° N visible
29 Sep ? 17:52:45 10° NNW 17:55:13 16° N 17:57:42 10° NE visible
29 Sep ? 19:29:58 10° NNW 19:32:41 29° N 19:32:41 29° N visible
29 Sep ? 21:07:07 10° NW 21:07:15 11° NW 21:07:15 11° NW visible
30 Sep ? 17:30:45 10° NNW 17:33:11 16° N 17:35:37 10° NE visible
30 Sep ? 19:08:00 10° NNW 19:11:12 30° NNE 19:11:12 30° NNE visible
30 Sep ? 20:45:08 10° NW 20:45:46 14° NW 20:45:46 14° NW visible
01 Oct ? 17:08:44 10° NNW 17:11:09 16° N 17:13:33 10° NE visible
01 Oct ? 18:46:03 10° NNW 18:49:28 29° NNE 18:49:45 29° NE visible
01 Oct ? 20:23:08 10° NW 20:24:19 19° NW 20:24:19 19° NW visible
02 Oct ? 18:24:04 10° NNW 18:27:26 27° NNE 18:28:18 25° NE visible
02 Oct ? 20:01:09 10° NW 20:02:53 25° NW 20:02:53 25° NW visible
03 Oct ? 18:02:05 10° NNW 18:05:24 26° NNE 18:06:53 21° ENE visible
03 Oct ? 19:39:08 10° NW 19:41:28 34° NW 19:41:28 34° NW visible
04 Oct ? 17:40:05 10° NNW 17:43:21 25° NNE 17:45:30 16° ENE visible
04 Oct ? 19:17:08 10° NW 19:20:04 50° NW 19:20:04 50° NW visible
